This is the latest recevied weather packets stored in our database for station/object KK7MLS-13. If no packets are shown the sender has not sent any weather packets the latest 10 day(s).
| Time | Temp. | Humidity | Pressure | Rain* | Wind** | Luminosity | Snow |
|---|---|---|---|---|---|---|---|
| 1788278508 | 13.89° C | 94% | 1012.7 hPa | 1.78 mm | - | 48 W/m² | - |
| 1788278207 | 13.89° C | 93% | 1012.6 hPa | 1.78 mm | - | 26 W/m² | - |
| 1788277906 | 13.89° C | 93% | 1012.7 hPa | 0 mm | - | 23 W/m² | - |
| 1788277598 | 13.89° C | 93% | 1012.6 hPa | 0 mm | - | 23 W/m² | - |
| 1788277292 | 13.89° C | 93% | 1012.8 hPa | 0 mm | - | 30 W/m² | - |
| 1788276987 | 13.89° C | 93% | 1012.6 hPa | 0 mm | - | 40 W/m² | - |
| 1788276681 | 13.89° C | 93% | 1012.7 hPa | 0 mm | - | 40 W/m² | - |
| 1788276377 | 13.89° C | 92% | 1012.6 hPa | 0 mm | - | 28 W/m² | - |
| 1788276075 | 13.89° C | 92% | 1012.5 hPa | 0 mm | - | 27 W/m² | - |
| 1788275771 | 13.89° C | 92% | 1012.5 hPa | 0 mm | - | 27 W/m² | - |
| 1788275470 | 13.89° C | 91% | 1012.5 hPa | 0 mm | - | 12 W/m² | - |
| 1788275169 | 13.89° C | 91% | 1012.4 hPa | 0 mm | - | 14 W/m² | - |
| 1788274868 | 13.89° C | 90% | 1012.3 hPa | 0 mm | - | 19 W/m² | - |
| 1788274567 | 14.44° C | 88% | 1012.3 hPa | 0 mm | - | 13 W/m² | - |
| 1788274265 | 14.44° C | 87% | 1012.3 hPa | 0 mm | - | 10 W/m² | - |
| 1788273961 | 14.44° C | 85% | 1012.3 hPa | 0 mm | - | 12 W/m² | - |
| 1788273656 | 14.44° C | 85% | 1012.3 hPa | 0 mm | - | 11 W/m² | - |
| 1788273352 | 14.44° C | 84% | 1012.2 hPa | 0 mm | - | 10 W/m² | - |
| 1788273048 | 14.44° C | 84% | 1012.2 hPa | 0 mm | - | 8 W/m² | - |
| 1788272743 | 14.44° C | 84% | 1012.1 hPa | 0 mm | - | 9 W/m² | - |
| 1788272446 | 14.44° C | 83% | 1012.1 hPa | 0 mm | - | 6 W/m² | - |
| 1788272138 | 14.44° C | 83% | 1012.1 hPa | 0 mm | - | 6 W/m² | - |
| 1788271833 | 14.44° C | 83% | 1012.1 hPa | 0 mm | - | 5 W/m² | - |
| 1788271532 | 14.44° C | 83% | 1011.7 hPa | 0 mm | - | 4 W/m² | - |
| 1788271227 | 14.44° C | 83% | 1012 hPa | 0 mm | - | 4 W/m² | - |
* Rain latest hour (hover to see other rain measurements)
** Current wind speed in m/s (hover to see current wind gust speed)